Regional Weather Roundup
Issued by NWS

Home | Current Version | Previous Version | Graphics & Text | Print | Product List | Glossary On
Versions: 1 2 3 4 5 6 7 8 9 10 11 12 13 14 15 16 17 18 19 20 21 22 23 24 25 26 27
000
ASUS45 KBOU 251007
RWRCO

WEATHER ROUNDUP FOR COLORADO
NATIONAL WEATHER SERVICE DENVER/BOULDER CO
400 AM MDT SUN JUN 25 2017

NOTE: "FAIR" INDICATES FEW OR NO CLOUDS BELOW 12000 FEET WITH NO
SIGNIFICANT WEATHER AND/OR OBSTRUCTIONS TO VISIBILITY.

COZ001>005-013-030-031-251100-
...NORTHWEST COLORADO...

CITY           SKY/WX    TMP DP  RH WIND       PRES   REMARKS
CRAIG          FAIR      42  35  76 CALM      30.30S
HAYDEN         FAIR      48  28  46 E13       30.32S
MEEKER         FAIR      44  31  60 VRB3      30.32R
RABBIT EARS PA FAIR      43  34  70 S3        30.56F
STEAMBOAT SPGS FAIR      42  33  70 CALM      30.35F
WALDEN         FAIR      39  34  81 CALM      30.44S
$$

COZ006>008-011-251100-
...WEST CENTRAL VALLEYS...

CITY           SKY/WX    TMP DP  RH WIND       PRES   REMARKS
GRAND JUNCTION FAIR      65  28  24 SE3       30.16S
MONTROSE       FAIR      56  32  40 S9        30.26R
EAGLE          FAIR      46  27  47 E3        30.38S
RIFLE          FAIR      53  27  36 CALM      30.26S
DELTA          FAIR      61  29  30 E5        30.22R
NUCLA          FAIR      59  27  29 E8        30.26S
$$

COZ017>023-064>068-251100-
...SOUTHWEST COLORADO...

CITY           SKY/WX    TMP DP  RH WIND       PRES   REMARKS
DURANGO        FAIR      49  26  41 E5        30.29R
CORTEZ         FAIR      46  29  51 CALM      30.22R
PAGOSA SPRINGS FAIR      51  27  38 NW3       30.38S
TELLURIDE      FAIR      51  24  34 SE6       30.48S
WOLF CREEK PAS FAIR      41  41 100 CALM      30.72S
$$

COZ009-010-012-014-032>034-037-058>063-251100-
...CENTRAL COLORADO...

CITY           SKY/WX    TMP DP  RH WIND       PRES   REMARKS
ASPEN          FAIR      41  29  62 SW6       30.39F
BUENA VISTA    CLOUDY    55  44  66 CALM      30.47S
COPPER MTN     FAIR      45  32  61 SW8       30.67S
BERTHOUD PASS  FAIR      34  21  60 W15G22    30.67F WCI  24
COTTONWOOD PAS MOCLDY    52  43  71 CALM      30.57S
GUNNISON       FAIR      46  32  58 NE5       30.43R
KREMMLING      NOT AVBL
LEADVILLE      FAIR      38  35  89 E6        30.55F
MONARCH PASS   FOG       37  37 100 SE7       30.77F VSB<1/4
SALIDA         FAIR      54  45  70 W3        30.51S
SUNLIGHT       FAIR      45  21  39 E3        30.60F
WILKERSON PASS FOG       41  39  93 SW5       30.67S VSB 3/4
$$

COZ069>075-251100-
...SAN LUIS VALLEY/SANGRE DE CRISTO MOUNTAINS...

CITY           SKY/WX    TMP DP  RH WIND       PRES   REMARKS
ALAMOSA        FAIR      48  44  86 W3        30.40S
DEL NORTE      FAIR      49  37  63 W10       30.44S
LA VETA PASS   LGT RAIN  45  43  93 N7        30.68S
SAGUACHE       MOCLDY    50  37  62 N3        30.43S
$$

COZ035-036-038>040-251100-
...NORTHERN COLORADO FRONT RANGE...

CITY           SKY/WX    TMP DP  RH WIND       PRES   REMARKS
DENVER INTL AP FAIR      51  45  79 SW6       30.32F
DMNS CITY PARK   N/A     55  49  80 E7        30.33S
AURORA         PTCLDY    52  48  87 S7        30.34F
FRONT RANGE AP FAIR      54  48  82 SW9       30.33F
ERIE MUNI ARPT FAIR      52  48  88 CALM      30.32F
BOULDER MUN AP FAIR      54  50  87 NW3       30.32F
CENTENNIAL     FAIR      51  47  86 S6        30.35F
BROOMFIELD     FAIR      54  48  82 CALM      30.34F
FORT COLLINS   FAIR      55  48  77 NW5       30.34S
LONGMONT       FAIR      54  48  82 W3        30.34S
$$

COZ041-046-047-076>085-087-088-251100-
...PIKES PEAK/PALMER DIVIDE AND SOUTHERN FOOTHILLS...

CITY           SKY/WX    TMP DP  RH WIND       PRES   REMARKS
COLO. SPRINGS  FAIR      53  47  79 NE8       30.38F
A. F. ACADEMY  FAIR      48  43  83 N9        30.39F
SCHRIEVER AFB  FAIR      54  49  82 N8        30.38F
CHEYENNE MTN   FAIR      56  46  70 NW3       30.35F
ELLICOTT       MOCLDY   N/A N/A N/A CALM      30.36F
FALCON           N/A     50  47  90 NW5       30.42S
FORT CARSON    FAIR      52  47  81 NW5       30.35F
LIMON          FAIR      50  46  86 SE3       30.35F
MONUMENT HILL  FAIR      43  41  93 S8        30.42F
CANON CITY     CLEAR     59  52  77 CALM      30.33S
WALSENBURG     CLOUDY    57  50  77 W5        30.35S
TRINIDAD       CLOUDY    60  49  66 CALM      30.34F
$$

COZ042>045-048>051-090-091-251100-
...NORTHEAST COLORADO...

CITY           SKY/WX    TMP DP  RH WIND       PRES   REMARKS
GREELEY ARPT   FAIR      55  50  83 NE8       30.34S
AKRON          FAIR      54  51  90 SE8       30.33S
BURLINGTON     MOCLDY    55  53  93 SE10      30.33S
WRAY           FAIR      54  46  76 E5        30.33S
YUMA           PTSUNNY   52  50  93 E6        30.32S
STERLING       FAIR      55  50  82 NE3       30.32R
HOLYOKE        NOT AVBL
FORT MORGAN    FAIR      53  50  89 E6        30.33S
$$

COZ086-089-092>099-251100-
...SOUTHEAST COLORADO...

CITY           SKY/WX    TMP DP  RH WIND       PRES   REMARKS
PUEBLO         MOCLDY    61  52  72 N8        30.29S
LA JUNTA       FAIR      62  54  74 E5        30.27F
LAMAR          MOCLDY    62  55  77 E6        30.26F
SPRINGFIELD      N/A     62  57  83 S10       30.30S
$$




USA.gov is the U.S. government's official web portal to all federal, state and local government web resources and services.